Time,TemperatureF,DewpointF,PressureIn,WindDirection,WindDirectionDegrees,WindSpeedMPH,WindSpeedGustMPH,Humidity,HourlyPrecipIn,Conditions,Clouds,dailyrainin,SoftwareType,DateUTC
2013-05-13 00:13:00,51.8,34.7,29.75,SW,225,0.0,-999.0,52,-99.99,,,0.00,Acu-Link.com,2013-05-13 07:13:00,
2013-05-13 00:28:00,51.8,36.2,29.75,SSE,157,2.0,-999.0,55,-99.99,,,0.00,Acu-Link.com,2013-05-13 07:28:00,
2013-05-13 00:43:00,51.8,36.6,29.75,SSW,202,0.0,-999.0,56,-99.99,,,0.00,Acu-Link.com,2013-05-13 07:43:00,
2013-05-13 00:58:00,51.8,37.1,29.76,SSW,202,0.0,-999.0,57,-99.99,,,0.00,Acu-Link.com,2013-05-13 07:58:00,
2013-05-13 01:14:00,51.8,37.5,29.76,SW,225,0.0,-999.0,58,-99.99,,,0.00,Acu-Link.com,2013-05-13 08:14:00,
2013-05-13 01:29:00,51.8,37.5,29.76,SSW,202,0.0,-999.0,58,-99.99,,,0.00,Acu-Link.com,2013-05-13 08:29:00,
2013-05-13 01:44:00,51.8,38.4,29.75,South,180,0.0,-999.0,60,-99.99,,,0.00,Acu-Link.com,2013-05-13 08:44:00,
2013-05-13 01:59:00,51.8,39.2,29.75,SE,135,1.6,-999.0,62,-99.99,,,0.00,Acu-Link.com,2013-05-13 08:59:00,
2013-05-13 02:14:00,50.0,37.5,29.76,SSW,202,0.0,-999.0,62,-99.99,,,0.00,Acu-Link.com,2013-05-13 09:14:00,
2013-05-13 02:29:00,50.0,37.5,29.76,WNW,292,0.0,-999.0,62,-99.99,,,0.00,Acu-Link.com,2013-05-13 09:29:00,
2013-05-13 02:45:00,50.0,37.9,29.76,West,270,0.0,-999.0,63,-99.99,,,0.00,Acu-Link.com,2013-05-13 09:45:00,
2013-05-13 03:00:00,50.0,38.3,29.76,East,90,0.0,-999.0,64,-99.99,,,0.00,Acu-Link.com,2013-05-13 10:00:00,
2013-05-13 03:15:00,50.0,38.7,29.76,NE,45,0.0,-999.0,65,-99.99,,,0.00,Acu-Link.com,2013-05-13 10:15:00,
2013-05-13 03:31:00,48.2,38.1,29.76,NNW,337,0.0,-999.0,68,-99.99,,,0.00,Acu-Link.com,2013-05-13 10:31:00,
2013-05-13 03:46:00,48.2,38.5,29.76,West,270,0.0,-999.0,69,-99.99,,,0.00,Acu-Link.com,2013-05-13 10:46:00,
2013-05-13 04:01:00,48.2,38.1,29.77,NNW,337,0.0,-999.0,68,-99.99,,,0.00,Acu-Link.com,2013-05-13 11:01:00,
2013-05-13 04:16:00,48.2,37.8,29.77,NE,45,0.0,-999.0,67,-99.99,,,0.00,Acu-Link.com,2013-05-13 11:16:00,
2013-05-13 04:31:00,48.2,38.5,29.77,East,90,0.0,-999.0,69,-99.99,,,0.00,Acu-Link.com,2013-05-13 11:31:00,
2013-05-13 04:46:00,46.4,37.2,29.77,ESE,112,0.0,-999.0,70,-99.99,,,0.00,Acu-Link.com,2013-05-13 11:46:00,
2013-05-13 05:01:00,46.4,37.2,29.77,East,90,0.0,-999.0,70,-99.99,,,0.00,Acu-Link.com,2013-05-13 12:01:00,
2013-05-13 05:17:00,46.4,37.5,29.77,South,180,0.0,-999.0,71,-99.99,,,0.00,Acu-Link.com,2013-05-13 12:17:00,
2013-05-13 05:32:00,46.4,37.5,29.76,NE,45,0.0,-999.0,71,-99.99,,,0.00,Acu-Link.com,2013-05-13 12:32:00,
2013-05-13 05:47:00,46.4,37.5,29.76,NNE,22,0.0,-999.0,71,-99.99,,,0.00,Acu-Link.com,2013-05-13 12:47:00,
2013-05-13 06:02:00,46.4,37.9,29.77,ENE,67,0.0,-999.0,72,-99.99,,,0.00,Acu-Link.com,2013-05-13 13:02:00,
2013-05-13 06:18:00,44.6,37.2,29.77,NE,45,0.0,-999.0,75,-99.99,,,0.00,Acu-Link.com,2013-05-13 13:18:00,
2013-05-13 06:33:00,46.4,39.3,29.77,NNW,337,0.0,-999.0,76,-99.99,,,0.00,Acu-Link.com,2013-05-13 13:33:00,
2013-05-13 06:48:00,46.4,38.6,29.77,NE,45,2.7,-999.0,74,-99.99,,,0.00,Acu-Link.com,2013-05-13 13:48:00,
2013-05-13 07:03:00,46.4,38.6,29.77,East,90,0.0,-999.0,74,-99.99,,,0.00,Acu-Link.com,2013-05-13 14:03:00,
2013-05-13 07:18:00,46.4,38.6,29.77,SSW,202,0.0,-999.0,74,-99.99,,,0.00,Acu-Link.com,2013-05-13 14:18:00,
2013-05-13 07:33:00,46.4,37.2,29.77,SE,135,0.0,-999.0,70,-99.99,,,0.00,Acu-Link.com,2013-05-13 14:33:00,
2013-05-13 07:49:00,48.2,37.0,29.77,West,270,1.6,-999.0,65,-99.99,,,0.00,Acu-Link.com,2013-05-13 14:49:00,
2013-05-13 08:04:00,50.0,38.3,29.77,North,0,0.0,-999.0,64,-99.99,,,0.00,Acu-Link.com,2013-05-13 15:04:00,
2013-05-13 08:19:00,51.8,37.9,29.76,South,180,0.0,-999.0,59,-99.99,,,0.00,Acu-Link.com,2013-05-13 15:19:00,
2013-05-13 08:34:00,53.6,37.8,29.76,SSW,202,2.7,-999.0,55,-99.99,,,0.00,Acu-Link.com,2013-05-13 15:34:00,
2013-05-13 08:49:00,53.6,35.9,29.76,South,180,2.0,-999.0,51,-99.99,,,0.00,Acu-Link.com,2013-05-13 15:49:00,
2013-05-13 09:05:00,55.4,36.0,29.75,ESE,112,0.0,-999.0,48,-99.99,,,0.00,Acu-Link.com,2013-05-13 16:05:00,
2013-05-13 09:20:00,55.4,35.0,29.74,SSW,202,3.6,-999.0,46,-99.99,,,0.00,Acu-Link.com,2013-05-13 16:20:00,
2013-05-13 09:35:00,55.4,33.9,29.74,ENE,67,0.0,-999.0,44,-99.99,,,0.00,Acu-Link.com,2013-05-13 16:35:00,
2013-05-13 09:50:00,59.0,35.9,29.73,NNE,22,2.7,-999.0,42,-99.99,,,0.00,Acu-Link.com,2013-05-13 16:50:00,
2013-05-13 10:05:00,59.0,35.3,29.73,WNW,292,2.0,-999.0,41,-99.99,,,0.00,Acu-Link.com,2013-05-13 17:05:00,
2013-05-13 10:21:00,60.8,35.7,29.72,SSW,202,1.6,-999.0,39,-99.99,,,0.00,Acu-Link.com,2013-05-13 17:21:00,
2013-05-13 10:36:00,59.0,34.1,29.72,South,180,2.7,-999.0,39,-99.99,,,0.00,Acu-Link.com,2013-05-13 17:36:00,
2013-05-13 10:51:00,59.0,34.1,29.71,ESE,112,3.1,-999.0,39,-99.99,,,0.00,Acu-Link.com,2013-05-13 17:51:00,
2013-05-13 11:07:00,62.6,33.1,29.71,SSE,157,3.6,-999.0,33,-99.99,,,0.00,Acu-Link.com,2013-05-13 18:07:00,
2013-05-13 11:22:00,60.8,33.0,29.71,WSW,247,3.6,-999.0,35,-99.99,,,0.00,Acu-Link.com,2013-05-13 18:22:00,
2013-05-13 11:37:00,60.8,33.0,29.70,ESE,112,1.6,-999.0,35,-99.99,,,0.00,Acu-Link.com,2013-05-13 18:37:00,
2013-05-13 11:52:00,59.0,32.8,29.70,SSW,202,2.7,-999.0,37,-99.99,,,0.00,Acu-Link.com,2013-05-13 18:52:00,
2013-05-13 12:07:00,60.8,33.7,29.69,SSW,202,1.6,-999.0,36,-99.99,,,0.00,Acu-Link.com,2013-05-13 19:07:00,
2013-05-13 12:22:00,60.8,34.4,29.69,SSE,157,2.0,-999.0,37,-99.99,,,0.00,Acu-Link.com,2013-05-13 19:22:00,
2013-05-13 12:38:00,60.8,35.7,29.69,WSW,247,2.7,-999.0,39,-99.99,,,0.00,Acu-Link.com,2013-05-13 19:38:00,
2013-05-13 12:53:00,53.6,40.9,29.69,NE,45,2.7,-999.0,62,-99.99,,,0.01,Acu-Link.com,2013-05-13 19:53:00,
2013-05-13 13:08:00,53.6,37.8,29.69,WNW,292,0.0,-999.0,55,-99.99,,,0.01,Acu-Link.com,2013-05-13 20:08:00,
2013-05-13 13:23:00,55.4,38.1,29.67,South,180,0.0,-999.0,52,-99.99,,,0.01,Acu-Link.com,2013-05-13 20:23:00,
2013-05-13 13:38:00,59.0,39.3,29.67,SSE,157,1.1,-999.0,48,-99.99,,,0.01,Acu-Link.com,2013-05-13 20:38:00,
2013-05-13 13:53:00,59.0,35.9,29.65,South,180,2.7,-999.0,42,-99.99,,,0.01,Acu-Link.com,2013-05-13 20:53:00,
2013-05-13 14:08:00,59.0,34.7,29.65,SSW,202,3.6,-999.0,40,-99.99,,,0.01,Acu-Link.com,2013-05-13 21:08:00,
2013-05-13 14:24:00,59.0,35.3,29.65,SE,135,3.6,-999.0,41,-99.99,,,0.01,Acu-Link.com,2013-05-13 21:24:00,
2013-05-13 14:39:00,59.0,34.7,29.65,SW,225,2.0,-999.0,40,-99.99,,,0.01,Acu-Link.com,2013-05-13 21:39:00,
2013-05-13 14:54:00,62.6,37.3,29.63,NNW,337,1.1,-999.0,39,-99.99,,,0.01,Acu-Link.com,2013-05-13 21:54:00,
2013-05-13 15:09:00,60.8,37.0,29.63,SW,225,3.1,-999.0,41,-99.99,,,0.01,Acu-Link.com,2013-05-13 22:09:00,
2013-05-13 15:24:00,60.8,34.4,29.62,SSW,202,1.6,-999.0,37,-99.99,,,0.01,Acu-Link.com,2013-05-13 22:24:00,
2013-05-13 15:40:00,60.8,34.4,29.61,West,270,2.0,-999.0,37,-99.99,,,0.01,Acu-Link.com,2013-05-13 22:40:00,
2013-05-13 15:55:00,57.2,34.9,29.61,NE,45,6.7,-999.0,43,-99.99,,,0.01,Acu-Link.com,2013-05-13 22:55:00,
2013-05-13 16:10:00,55.4,37.6,29.62,NNW,337,3.6,-999.0,51,-99.99,,,0.01,Acu-Link.com,2013-05-13 23:10:00,
2013-05-13 16:25:00,53.6,37.8,29.62,NNW,337,1.6,-999.0,55,-99.99,,,0.01,Acu-Link.com,2013-05-13 23:25:00,
2013-05-13 16:40:00,53.6,41.3,29.64,East,90,1.6,-999.0,63,-99.99,,,0.01,Acu-Link.com,2013-05-13 23:40:00,
2013-05-13 16:56:00,50.0,39.5,29.65,NNE,22,5.6,-999.0,67,-99.99,,,0.01,Acu-Link.com,2013-05-13 23:56:00,
2013-05-13 17:11:00,48.2,40.3,29.67,NE,45,0.0,-999.0,74,-99.99,,,0.01,Acu-Link.com,2013-05-14 00:11:00,
2013-05-13 17:26:00,46.4,40.2,29.66,NNE,22,3.1,-999.0,79,-99.99,,,0.02,Acu-Link.com,2013-05-14 00:26:00,
2013-05-13 17:41:00,46.4,41.2,29.64,NE,45,2.0,-999.0,82,-99.99,,,0.02,Acu-Link.com,2013-05-14 00:41:00,
2013-05-13 17:56:00,46.4,40.6,29.63,NE,45,2.0,-999.0,80,-99.99,,,0.02,Acu-Link.com,2013-05-14 00:56:00,
2013-05-13 18:11:00,48.2,41.7,29.63,ESE,112,0.0,-999.0,78,-99.99,,,0.02,Acu-Link.com,2013-05-14 01:11:00,
2013-05-13 18:26:00,50.0,43.1,29.62,SSW,202,0.0,-999.0,77,-99.99,,,0.02,Acu-Link.com,2013-05-14 01:26:00,
2013-05-13 18:41:00,50.0,42.7,29.62,SSE,157,0.0,-999.0,76,-99.99,,,0.04,Acu-Link.com,2013-05-14 01:41:00,
2013-05-13 18:56:00,50.0,42.7,29.63,WSW,247,0.0,-999.0,76,-99.99,,,0.04,Acu-Link.com,2013-05-14 01:56:00,
2013-05-13 19:11:00,50.0,42.7,29.63,ESE,112,0.0,-999.0,76,-99.99,,,0.04,Acu-Link.com,2013-05-14 02:11:00,
2013-05-13 19:27:00,48.2,41.7,29.63,West,270,0.0,-999.0,78,-99.99,,,0.04,Acu-Link.com,2013-05-14 02:27:00,
2013-05-13 19:42:00,46.4,40.2,29.64,ESE,112,0.0,-999.0,79,-99.99,,,0.04,Acu-Link.com,2013-05-14 02:42:00,
2013-05-13 19:57:00,46.4,40.9,29.64,ESE,112,0.0,-999.0,81,-99.99,,,0.04,Acu-Link.com,2013-05-14 02:57:00,
2013-05-13 20:12:00,46.4,41.5,29.64,East,90,0.0,-999.0,83,-99.99,,,0.04,Acu-Link.com,2013-05-14 03:12:00,
2013-05-13 20:27:00,46.4,41.8,29.65,NE,45,0.0,-999.0,84,-99.99,,,0.04,Acu-Link.com,2013-05-14 03:27:00,
2013-05-13 20:42:00,44.6,40.4,29.65,NE,45,0.0,-999.0,85,-99.99,,,0.04,Acu-Link.com,2013-05-14 03:42:00,
2013-05-13 20:57:00,44.6,40.7,29.66,SE,135,0.0,-999.0,86,-99.99,,,0.04,Acu-Link.com,2013-05-14 03:57:00,
2013-05-13 21:12:00,44.6,41.0,29.67,NE,45,0.0,-999.0,87,-99.99,,,0.04,Acu-Link.com,2013-05-14 04:12:00,
2013-05-13 21:28:00,44.6,41.3,29.68,NNE,22,0.0,-999.0,88,-99.99,,,0.04,Acu-Link.com,2013-05-14 04:28:00,
2013-05-13 21:43:00,44.6,41.9,29.69,West,270,2.7,-999.0,90,-99.99,,,0.04,Acu-Link.com,2013-05-14 04:43:00,
2013-05-13 21:58:00,44.6,41.9,29.72,NNW,337,4.7,-999.0,90,-99.99,,,0.07,Acu-Link.com,2013-05-14 04:58:00,
2013-05-13 22:13:00,42.8,39.8,29.73,SSE,157,2.0,-999.0,89,-99.99,,,0.13,Acu-Link.com,2013-05-14 05:13:00,
2013-05-13 22:29:00,42.8,41.2,29.74,NE,45,2.7,-999.0,94,-99.99,,,0.17,Acu-Link.com,2013-05-14 05:29:00,
2013-05-13 22:44:00,42.8,40.4,29.75,NNE,22,0.0,-999.0,91,-99.99,,,0.17,Acu-Link.com,2013-05-14 05:44:00,
2013-05-13 22:59:00,42.8,40.4,29.76,ESE,112,0.0,-999.0,91,-99.99,,,0.17,Acu-Link.com,2013-05-14 05:59:00,
2013-05-13 23:14:00,41.0,40.5,29.77,SSE,157,0.0,-999.0,98,-99.99,,,0.17,Acu-Link.com,2013-05-14 06:14:00,
2013-05-13 23:29:00,41.0,40.5,29.78,NE,45,0.0,-999.0,98,-99.99,,,0.18,Acu-Link.com,2013-05-14 06:29:00,
2013-05-13 23:44:00,41.0,40.5,29.78,ESE,112,0.0,-999.0,98,-99.99,,,0.18,Acu-Link.com,2013-05-14 06:44:00,
2013-05-13 23:59:00,41.0,40.5,29.78,NE,45,0.0,-999.0,98,-99.99,,,0.18,Acu-Link.com,2013-05-14 06:59:00,